Location: Overspoor
(51.4747°N, 5.6641°E)
Time: 14:17:02
(UTC+02:00)

RS-15 - Pass Details

Date: 27 June 2022
Orbit: 1881 x 2163 km, 64.8° (Epoch: 13 August)

Event Time Altitude Azimuth Distance (km) Brightness Sun altitude
Rises 04:06:37 0° 320° (NW) 5,701 10.7 -8.6°
Reaches altitude 10° 04:11:03 10° 308° (NW) 4,685 10.1 -8.2°
Maximum altitude 04:19:46 24° 262° (W) 3,627 9.1 -7.4°
Drops below altitude 10° 04:28:19 10° 215° (SW) 4,560 9.3 -6.6°
Enters shadow 04:29:45 - 210° (SSW) 4,860 9.4 -6.5°
